[[{"header":{"parameterUnit":"m.s-1","parameterCategory":1,"la1":30.2991,"la2":30.254,"lo1":-89.0895,"lo2":-89.0444,"dy":0.0017,"dx":0.0017,"nx":28,"ny":28,"refTime":"2025-02-02T09:00:00:Z","depth":0,"parameterNumber":2,"parameterNumberName":"U-component_of_WINDS"},"data":[0,0,0,0,0,0,0,0,0,0,0,0,0,0,0,0,0,0,0,0,0,0,0,0,0,0,0,0,0,0,0,0,0,0,0,0,0,0,0,0,0,0,0,0,0,0,0,0,0,0,0,0,0,0,0,0,0,0,-0.2082,-0.2081,0,-0.201,-0.2009,-0.2008,-0.1969,-0.1969,-0.1969,-0.1969,-0.1895,-0.1893,-0.1891,0,0,0,0,0,0,0,0,0,0,0,0,0,-0.2188,-0.2186,-0.2082,-0.2081,-0.208,-0.201,-0.2009,-0.2008,-0.1969,-0.1969,-0.1969,-0.1969,-0.1895,-0.1893,-0.1891,0,0,0,0,0,0,0,0,0,0,0,0,0,-0.2131,-0.2186,-0.2082,-0.2053,-0.2049,-0.201,-0.2009,-0.2007,-0.1969,-0.1969,-0.1969,-0.1969,-0.1896,-0.1893,-0.1891,-0.1875,0,0,-0.1882,-0.1881,0,0,0,0,0,0,0,0,-0.2135,-0.2128,-0.2058,-0.2055,-0.2051,-0.1998,-0.2019,-0.1963,-0.1969,-0.2,-0.1969,-0.1969,-0.1929,-0.1924,-0.191,-0.1872,-0.1868,-0.1882,-0.188,-0.1879,-0.1878,0,0,0,0,0,0,0,-0.2139,-0.213,-0.2053,-0.2057,-0.2053,-0.2043,-0.2035,-0.2008,-0.1966,-0.1997,-0.1994,-0.1986,-0.1927,-0.1913,-0.1908,-0.1867,-0.1882,-0.1879,-0.1877,-0.1876,-0.1813,-0.1813,0,0,0,0,0,0,-0.2147,-0.2134,-0.2056,-0.2051,-0.2093,-0.2041,-0.2032,-0.2015,-0.1966,-0.1959,-0.1986,-0.1985,-0.1918,-0.1912,-0.1906,-0.1885,-0.1879,-0.1876,-0.1874,-0.1813,-0.1813,-0.1813,0,0,0,0,0,0,-0.215,-0.2141,-0.2059,-0.2092,-0.2081,-0.204,-0.2021,-0.2014,-0.2,-0.1958,-0.195,-0.1979,-0.1918,-0.191,-0.1883,-0.1882,-0.1875,-0.1872,-0.1813,-0.1813,-0.1813,-0.1843,0,0,0,0,0,0,-0.2153,-0.2142,-0.2135,-0.2092,-0.2079,-0.2037,-0.2021,-0.2013,-0.1995,-0.1992,-0.195,-0.1943,-0.1917,-0.1888,-0.188,-0.1878,-0.187,-0.1813,-0.1813,-0.1813,-0.1842,-0.1844,-0.1846,0,0,0,0,0,-0.2157,-0.2146,-0.2135,-0.2126,-0.207,-0.2037,-0.203,-0.2001,-0.1995,-0.1988,-0.1962,-0.1944,-0.1883,-0.1885,-0.1877,-0.1873,-0.1813,-0.1813,-0.1813,-0.1841,-0.1843,-0.1846,0,0,0,0,0,0,-0.219,-0.214,-0.2127,-0.2102,-0.2074,-0.2031,-0.2021,-0.2004,-0.1978,-0.1976,-0.1941,-0.1932,-0.1909,-0.1888,-0.1892,-0.1856,-0.1846,-0.1845,-0.187,-0.1872,-0.1874,-0.188,-0.1867,0,0,0,0,0,-0.2194,-0.2172,-0.2129,-0.2111,-0.2098,-0.2062,-0.2047,-0.2027,-0.1997,-0.1985,-0.1956,-0.1928,-0.1902,-0.1886,-0.186,-0.1839,-0.1829,-0.1832,-0.1834,-0.1836,-0.1835,-0.1823,-0.1824,-0.1814,-0.1814,-0.1814,0,0,-0.2203,-0.2173,-0.2161,-0.2117,-0.2093,-0.2071,-0.2053,-0.203,-0.2013,-0.1981,-0.1955,-0.1933,-0.1899,-0.1875,-0.1863,-0.1857,-0.1836,-0.1836,-0.1838,-0.1836,-0.1823,-0.1824,-0.1825,-0.1814,-0.1814,-0.1814,0,0,-0.2208,-0.2183,-0.2165,-0.2142,-0.2106,-0.2083,-0.2079,-0.2038,-0.2022,-0.1995,-0.1972,-0.1951,-0.1908,-0.1885,-0.1868,-0.1865,-0.1848,-0.1858,-0.1868,-0.1856,-0.1857,-0.1858,-0.1857,-0.1858,-0.1857,-0.1857,-0.1857,0,-0.2223,-0.2189,-0.2158,-0.2137,-0.2119,-0.209,-0.2072,-0.2051,-0.2009,-0.1998,-0.1992,-0.1937,-0.1912,-0.1883,-0.1883,-0.1869,-0.1864,-0.1862,-0.186,-0.186,-0.186,-0.1859,-0.1859,-0.1858,-0.1858,-0.1858,-0.1858,0,-0.221,-0.2186,-0.2176,-0.2137,-0.2118,-0.2098,-0.2066,-0.205,-0.2032,-0.201,-0.1983,-0.1952,-0.192,-0.1912,-0.1894,-0.188,-0.1878,-0.1866,-0.1856,-0.1863,-0.1862,-0.1861,-0.186,-0.186,-0.186,-0.1859,0,0,-0.2232,-0.2177,-0.2174,-0.2156,-0.2115,-0.2097,-0.2077,-0.2045,-0.2033,-0.2005,-0.1988,-0.1952,-0.1942,-0.1922,-0.1902,-0.1892,-0.1893,-0.1881,-0.188,-0.1885,-0.1877,-0.1886,-0.1886,-0.1881,-0.1881,-0.1881,-0.188,0,-0.2231,-0.2193,-0.2166,-0.2139,-0.2118,-0.2091,-0.2073,-0.2047,-0.2025,-0.2004,-0.198,-0.1956,-0.1943,-0.1932,-0.1921,-0.1895,-0.1891,-0.1895,-0.1865,-0.1864,-0.1875,-0.1885,-0.1894,-0.1894,-0.1879,-0.1879,-0.1879,0,-0.2225,-0.2198,-0.2169,-0.2132,-0.2122,-0.2106,-0.2076,-0.2056,-0.2026,-0.2011,-0.199,-0.1969,-0.1947,-0.194,-0.1909,-0.1913,-0.1899,-0.1885,-0.1884,-0.188,-0.1872,-0.1882,-0.1894,-0.1894,-0.1878,-0.1878,-0.1878,0,-0.2245,-0.2202,-0.2179,-0.2165,-0.212,-0.211,-0.2091,-0.2061,-0.2044,-0.2018,-0.2007,-0.1979,-0.1963,-0.1942,-0.1914,-0.1911,-0.1887,-0.1877,-0.1875,-0.1876,-0.1871,-0.1871,-0.1881,-0.1862,-0.1862,-0.1862,-0.1862,0,-0.2246,-0.223,-0.2188,-0.2174,-0.2155,-0.2124,-0.2106,-0.2085,-0.2058,-0.204,-0.2015,-0.1998,-0.1963,-0.1942,-0.1921,-0.19,-0.1893,-0.188,-0.1875,-0.1882,-0.1884,-0.1873,-0.1872,-0.1862,-0.1862,-0.1862,-0.1862,0,-0.2265,-0.2236,-0.221,-0.217,-0.216,-0.2148,-0.2114,-0.21,-0.2077,-0.2055,-0.2048,-0.2013,-0.1987,-0.1958,-0.1923,-0.1908,-0.1889,-0.1881,-0.1899,-0.1896,-0.1896,-0.1896,-0.1899,-0.1898,-0.188,-0.188,-0.188,0,-0.2268,-0.2255,-0.2214,-0.22,-0.2182,-0.216,-0.2143,-0.2113,-0.2096,-0.2062,-0.2052,-0.2025,-0.2001,-0.1962,-0.1934,-0.1907,-0.1898,-0.1901,-0.1894,-0.1902,-0.1898,-0.19,-0.1899,-0.1903,-0.1903,-0.1903,-0.1903,0,-0.2276,-0.2263,-0.224,-0.2212,-0.2193,-0.2169,-0.2145,-0.2135,-0.21,-0.2083,-0.2057,-0.2039,-0.2003,-0.1977,-0.1947,-0.1928,-0.191,-0.1906,-0.1904,-0.1912,-0.1923,-0.1918,-0.1905,-0.1906,-0.1906,-0.1905,-0.1905,-0.1905,-0.2287,-0.2275,-0.2244,-0.222,-0.2198,-0.2176,-0.2161,-0.2138,-0.2115,-0.2084,-0.2068,-0.2042,-0.2013,-0.1971,-0.1953,-0.1933,-0.1927,-0.1924,-0.1923,-0.1923,-0.1926,-0.1927,-0.1927,-0.1927,-0.1927,-0.1927,-0.1927,0,-0.2295,-0.2274,-0.2252,-0.2219,-0.22,-0.2185,-0.2158,-0.2143,-0.212,-0.2095,-0.2073,-0.2044,-0.2018,-0.1988,-0.1961,-0.1951,-0.1942,-0.1945,-0.1945,-0.1941,-0.1932,-0.1937,-0.1952,-0.1952,-0.1952,-0.1952,-0.1952,-0.1952,-0.2297,-0.2275,-0.2258,-0.2226,-0.2205,-0.218,-0.2166,-0.2146,-0.2125,-0.2094,-0.2073,-0.2053,-0.2026,-0.1997,-0.1974,-0.1966,-0.1957,-0.1962,-0.1952,-0.1944,-0.1942,-0.194,-0.1944,-0.196,-0.196,-0.1962,-0.1962,-0.1962]},{"header":{"parameterUnit":"m.s-1","parameterCategory":1,"la1":30.2991,"la2":30.254,"lo1":-89.0895,"lo2":-89.0444,"dy":0.0017,"dx":0.0017,"nx":28,"ny":28,"refTime":"2025-02-02T09:00:00:Z","depth":0,"parameterNumber":3,"parameterNumberName":"V-component_of_WINDS"},"data":[0,0,0,0,0,0,0,0,0,0,0,0,0,0,0,0,0,0,0,0,0,0,0,0,0,0,0,0,0,0,0,0,0,0,0,0,0,0,0,0,0,0,0,0,0,0,0,0,0,0,0,0,0,0,0,0,0,0,1.1655,1.1655,0,1.1631,1.1631,1.163,1.1607,1.1607,1.1606,1.1606,1.1581,1.1581,1.1581,0,0,0,0,0,0,0,0,0,0,0,0,0,1.1681,1.1681,1.1655,1.1655,1.1654,1.1631,1.1631,1.163,1.1607,1.1607,1.1606,1.1606,1.1582,1.1581,1.1581,0,0,0,0,0,0,0,0,0,0,0,0,0,1.1665,1.168,1.1655,1.164,1.1638,1.1631,1.1631,1.163,1.1607,1.1607,1.1606,1.1606,1.1582,1.1581,1.1581,1.1586,0,0,1.1579,1.1579,0,0,0,0,0,0,0,0,1.1665,1.1664,1.1642,1.1641,1.1639,1.1621,1.1631,1.1615,1.1607,1.1619,1.1606,1.1606,1.1595,1.1593,1.159,1.1585,1.1584,1.1579,1.1578,1.1578,1.1578,0,0,0,0,0,0,0,1.1667,1.1665,1.1645,1.1642,1.164,1.1634,1.1632,1.1628,1.161,1.1618,1.1616,1.1614,1.1594,1.159,1.1589,1.1584,1.1579,1.1578,1.1578,1.1578,1.1582,1.1583,0,0,0,0,0,0,1.167,1.1666,1.1646,1.1645,1.1652,1.1634,1.1631,1.1628,1.161,1.1607,1.1614,1.1613,1.1592,1.159,1.1588,1.1594,1.1578,1.1578,1.1577,1.1582,1.1582,1.1583,0,0,0,0,0,0,1.1671,1.1669,1.1647,1.1655,1.1651,1.1634,1.1631,1.1627,1.1624,1.1607,1.1604,1.1614,1.1591,1.1589,1.1587,1.1593,1.1577,1.1577,1.1581,1.1582,1.1582,1.1605,0,0,0,0,0,0,1.1672,1.1669,1.1671,1.1655,1.1651,1.1646,1.1631,1.1627,1.1623,1.1621,1.1606,1.1603,1.1591,1.1588,1.1586,1.1592,1.1577,1.1581,1.1581,1.1582,1.1604,1.1606,1.1609,0,0,0,0,0,1.1673,1.1678,1.1671,1.1669,1.1653,1.1647,1.1645,1.1631,1.1623,1.1625,1.1614,1.1603,1.1592,1.1588,1.1586,1.1591,1.158,1.1581,1.1582,1.1603,1.1606,1.1609,0,0,0,0,0,0,1.1696,1.1676,1.1668,1.1669,1.166,1.1643,1.1645,1.1635,1.1628,1.1626,1.1609,1.1606,1.1606,1.1598,1.1594,1.1596,1.1585,1.1585,1.1601,1.1604,1.1606,1.1608,1.1576,0,0,0,0,0,1.1701,1.1697,1.168,1.1682,1.1678,1.1662,1.1659,1.1649,1.1639,1.1635,1.1624,1.1615,1.1609,1.1606,1.16,1.1602,1.1599,1.1605,1.1607,1.1609,1.1611,1.1612,1.1614,1.1586,1.1586,1.1586,0,0,1.1712,1.17,1.1699,1.1687,1.1679,1.1675,1.1659,1.1656,1.1654,1.1635,1.1632,1.1624,1.1612,1.1612,1.1612,1.1606,1.1617,1.1611,1.1613,1.1612,1.1613,1.1616,1.1618,1.1587,1.1587,1.1586,0,0,1.173,1.172,1.1722,1.1714,1.1701,1.1691,1.1691,1.1676,1.1669,1.1666,1.1652,1.1648,1.1639,1.1632,1.1627,1.1641,1.1631,1.1639,1.1653,1.1654,1.1656,1.1658,1.1664,1.1666,1.164,1.164,1.164,0,1.1745,1.1739,1.1723,1.1721,1.1717,1.1699,1.17,1.1693,1.1679,1.1676,1.1669,1.1657,1.1648,1.1647,1.165,1.1646,1.1646,1.1642,1.1657,1.1659,1.1661,1.1666,1.1668,1.1642,1.1642,1.1641,1.1641,0,1.1758,1.1755,1.1757,1.1744,1.1739,1.1739,1.1723,1.172,1.171,1.17,1.1698,1.1686,1.1677,1.1676,1.1666,1.1673,1.167,1.166,1.1649,1.1665,1.167,1.1671,1.1643,1.1643,1.1643,1.1642,0,0,1.1791,1.1769,1.1771,1.1765,1.175,1.1747,1.1745,1.1737,1.1735,1.1725,1.1724,1.1716,1.1707,1.1702,1.1691,1.1692,1.1705,1.1682,1.1682,1.1688,1.1712,1.172,1.1723,1.1697,1.1698,1.1698,1.1713,0,1.1807,1.1804,1.179,1.1791,1.1787,1.177,1.1768,1.1759,1.1749,1.1745,1.1734,1.1729,1.1718,1.1714,1.1714,1.1703,1.171,1.1702,1.1696,1.1696,1.1701,1.1725,1.1733,1.1749,1.1715,1.1715,1.1715,0,1.1826,1.1818,1.1819,1.1804,1.1802,1.1801,1.1792,1.1788,1.1777,1.177,1.1763,1.1751,1.1748,1.1737,1.1734,1.1729,1.1725,1.172,1.172,1.172,1.1708,1.1726,1.1753,1.1756,1.1718,1.1718,1.1718,0,1.1851,1.184,1.184,1.1835,1.1817,1.1817,1.181,1.1798,1.1794,1.1786,1.1783,1.1774,1.177,1.1764,1.175,1.1743,1.1748,1.1736,1.1743,1.1743,1.1745,1.1746,1.1773,1.1742,1.1742,1.1742,1.1742,0,1.1871,1.1872,1.1851,1.185,1.1851,1.1834,1.1836,1.1826,1.1816,1.1814,1.1797,1.1795,1.1776,1.1772,1.1761,1.176,1.1758,1.1752,1.175,1.1755,1.1755,1.1753,1.1752,1.1742,1.1742,1.1742,1.1742,0,1.19,1.1885,1.1883,1.1866,1.1862,1.1863,1.1849,1.1848,1.1837,1.1834,1.1832,1.1815,1.1809,1.1794,1.1785,1.1777,1.1779,1.1774,1.1783,1.1782,1.179,1.179,1.1817,1.1821,1.1787,1.1787,1.1787,0,1.1914,1.1915,1.1898,1.1895,1.1888,1.1884,1.1879,1.1862,1.1859,1.1846,1.1846,1.1839,1.1832,1.1824,1.1811,1.1803,1.1797,1.1808,1.1796,1.1801,1.1799,1.1799,1.1799,1.1811,1.1811,1.1811,1.1812,0,1.1942,1.1934,1.1928,1.192,1.1915,1.1908,1.1899,1.1898,1.1879,1.1875,1.1869,1.1864,1.1854,1.1847,1.1837,1.1829,1.1818,1.1815,1.1816,1.1822,1.1828,1.1826,1.1791,1.1815,1.1815,1.1814,1.1814,1.1814,1.1964,1.1964,1.1952,1.1946,1.1938,1.1931,1.1929,1.1918,1.1912,1.1903,1.1893,1.1888,1.1876,1.1862,1.1855,1.185,1.1844,1.1846,1.1847,1.1848,1.185,1.1828,1.1848,1.1848,1.1848,1.1848,1.1848,0,1.1992,1.1983,1.1978,1.1966,1.1962,1.195,1.194,1.1937,1.1933,1.1923,1.1917,1.191,1.1903,1.1889,1.1881,1.188,1.1875,1.1879,1.1879,1.1878,1.1856,1.1856,1.1883,1.1883,1.1883,1.1883,1.1883,1.1883,1.2006,1.2005,1.1996,1.1991,1.1982,1.1977,1.1973,1.1965,1.1958,1.195,1.1945,1.1935,1.1924,1.1915,1.1908,1.1904,1.1902,1.1908,1.1903,1.1883,1.1879,1.1876,1.1876,1.1908,1.1908,1.1925,1.1925,1.1925]}]]